RH
23 19 19 11 11 9 8 6 4 3 3 3 3 3 3 4 8 10 10 11 15 18 22 30 41 53 58 65 68 56 42 36 44 47 45 52 60 62 57 68 59 53 43 44 45
25 19 16 13 13 9 8 6 4 4 3 2 2 2 3 4 5 8 12 12 12 17 18 25 33 40 54 60 65 57 50 57 60 58 47 48 46 56 51 47 68 57 47 48 50
24 17 16 16 16 10 8 7 4 4 3 2 2 3 3 4 4 6 11 15 14 15 17 20 29 38 41 54 60 60 56 77 55 49 46 71 49 54 51 52 63 66 56 53 47
24 18 16 23 17 12 10 8 4 3 3 3 3 3 3 4 4 4 7 11 16 15 16 19 26 33 40 46 61 66 66 75 68 72 63 69 50 56 42 48 72 69 58 58 55
22 20 14 24 19 16 11 10 5 4 3 3 3 3 3 3 5 5 4 7 13 14 16 18 20 28 38 41 46 66 83 77 64 85 79 83 62 60 44 63 70 72 65 62 62
22 21 16 21 21 19 13 13 7 5 4 4 3 3 3 4 4 5 4 4 7 14 15 19 19 25 31 38 39 48 74 88 71 94 94 80 77 82 58 81 81 78 70 62 53
23 18 18 18 21 23 16 14 12 7 6 5 4 3 3 4 6 6 5 5 5 10 18 18 21 22 26 34 44 37 41 71 79 100 94 78 78 93 94 94 88 90 84 71 60
30 25 23 23 24 25 23 14 18 12 8 7 6 3 3 4 6 8 7 4 5 6 18 22 25 24 29 32 42 46 37 51 93 100 90 80 83 88 97 92 95 100 81 70 58
34 26 30 23 23 34 32 17 18 20 13 9 8 7 5 7 8 9 7 5 4 6 11 20 24 29 27 34 43 54 43 59 100 100 94 92 97 91 93 81 78 88 86 78 64
44 44 40 29 21 39 42 30 16 23 20 14 10 10 9 6 7 6 6 5 4 5 8 20 24 30 31 33 36 58 55 42 82 100 97 96 99 89 100 90 90 98 100 92 98
55 62 48 24 24 32 51 45 24 20 28 20 15 11 11 9 6 6 5 5 4 6 8 16 24 28 33 37 40 51 61 47 57 100 100 96 100 100 100 92 92 100 100 100 100
73 74 65 31 20 21 42 64 40 18 24 28 19 14 12 11 7 5 5 4 5 5 10 14 23 26 32 34 35 36 57 51 40 55 92 100 100 100 100 90 97 100 100 100 99
89 97 75 48 28 20 24 51 65 32 20 26 26 20 13 12 10 6 4 4 5 6 9 13 22 26 32 36 36 37 55 60 47 40 41 94 100 98 100 96 99 100 100 98 98
33 100 93 66 47 29 23 25 58 54 24 20 28 29 19 14 14 9 7 4 5 6 8 11 23 27 32 35 34 36 51 56 48 37 54 90 100 100 100 100 100 100 93 94 93
34 86 100 92 66 60 26 23 26 61 42 19 24 33 30 20 14 15 7 7 5 5 7 10 16 26 31 32 32 32 36 49 51 42 56 45 79 100 100 100 100 95 90 85 87
26 39 97 100 84 78 56 25 25 26 52 39 23 25 36 31 21 16 15 7 5 5 5 8 11 23 30 33 33 34 38 54 56 48 38 36 51 100 100 100 100 100 100 100 97
33 28 34 100 80 88 79 50 41 25 36 50 32 32 25 37 30 24 18 16 11 5 6 6 10 18 25 29 30 31 32 45 54 52 44 38 38 100 93 100 100 100 100 100 100
46 37 32 86 78 92 94 85 52 28 26 67 58 34 34 27 37 32 27 19 16 13 7 5 8 15 24 29 33 34 31 31 46 56 56 44 39 72 100 100 100 100 100 97 100
55 43 42 47 74 98 93 93 88 31 34 57 75 47 38 30 29 38 31 30 18 16 13 8 6 10 19 26 28 33 33 31 42 60 62 48 44 81 89 98 100 100 100 92 89
73 50 49 40 57 92 98 95 95 47 32 31 75 64 47 50 31 28 38 31 32 22 15 10 7 8 12 22 28 34 35 32 37 49 63 56 44 53 73 88 97 99 97 91 84
88 82 60 45 46 92 78 100 100 71 31 31 43 84 62 49 52 35 25 38 32 33 24 16 10 8 10 18 27 34 37 36 39 49 67 66 52 46 47 62 77 87 88 84 82
92 100 74 64 40 37 38 83 100 98 43 34 42 92 88 79 66 54 45 27 42 38 35 26 18 13 11 14 26 34 39 40 43 55 62 69 65 55 48 49 50 65 74 78 82
78 80 84 79 52 40 38 38 97 99 84 52 33 45 83 91 85 76 58 49 29 43 43 40 30 20 16 15 21 32 40 42 45 44 62 63 76 63 54 47 48 48 50 56 63
83 74 92 80 64 55 51 44 46 61 98 92 38 31 43 76 97 89 68 61 54 36 45 46 43 32 22 18 19 29 37 39 46 55 60 72 88 73 63 54 52 52 53 54 55
97 70 100 100 100 85 60 68 64 68 89 100 92 37 33 39 89 100 89 72 55 69 43 44 49 47 35 29 24 24 33 39 50 54 56 87 87 84 76 67 65 70 72 71 66
72 65 78 100 97 100 81 66 69 91 63 78 100 95 68 35 59 99 100 94 66 50 66 51 40 49 52 46 35 30 36 44 53 55 68 64 88 81 94 91 81 80 82 78 70
80 76 69 63 65 77 98 85 67 84 74 93 100 99 95 70 35 55 100 94 93 72 44 48 62 47 43 49 47 39 40 51 58 61 74 82 98 96 100 98 99 91 85 80 74
Wind_Speed
43 49 56 60 67 67 67 65 59 51 46 46 49 54 64 75 84 86 90 94 95 95 91 88 85 84 83 79 77 74 70 62 59 56 55 52 49 45 44 44 38 37 37 37 38
49 54 56 63 71 71 68 63 56 49 43 42 45 47 54 64 77 86 87 90 96 98 95 93 90 86 82 83 78 75 70 65 65 64 60 54 51 48 44 43 41 38 39 38 38
51 56 58 66 75 78 72 62 56 47 42 38 36 41 44 54 65 77 89 92 93 97 98 95 94 90 84 83 79 76 67 71 72 65 56 57 54 50 45 43 40 40 41 39 38
50 56 67 71 78 83 79 68 59 49 38 32 29 33 37 44 54 69 81 92 95 96 98 98 97 93 90 82 81 78 73 75 72 66 61 60 54 54 47 42 42 43 42 41 40
50 56 68 73 79 86 86 74 63 52 38 28 25 25 29 34 46 57 69 85 95 95 97 100 98 97 92 85 82 81 78 78 72 67 65 63 58 55 47 44 43 44 43 43 42
51 60 66 75 79 85 89 85 70 56 43 31 22 19 21 27 38 48 59 71 84 92 93 96 99 100 94 89 84 81 82 80 72 69 69 66 59 55 49 47 44 45 44 45 45
55 61 67 76 79 82 89 91 79 65 53 39 29 18 16 20 30 39 48 56 70 89 96 95 95 94 94 89 87 81 81 80 72 70 70 67 61 56 50 49 46 45 46 46 45
55 60 69 75 75 80 86 91 87 76 64 53 37 26 16 14 20 26 36 45 60 79 96 95 97 97 96 90 88 81 79 75 73 73 71 67 58 60 54 52 49 48 48 46 45
52 61 68 71 72 76 82 89 91 85 73 60 50 32 21 14 14 18 27 38 54 71 92 96 97 98 96 93 90 87 80 76 78 75 73 65 62 59 56 56 51 50 48 46 41
52 60 65 70 70 72 79 84 90 90 81 71 55 43 28 19 14 14 20 33 48 65 84 96 96 97 98 97 89 84 81 79 80 76 70 65 62 59 56 55 51 48 48 46 43
56 60 62 67 68 71 75 81 85 89 87 73 63 50 38 25 14 12 16 26 42 59 78 93 98 96 97 96 95 95 90 84 83 80 73 67 65 59 57 56 52 49 49 48 46
54 57 58 63 66 71 73 77 81 85 89 83 69 58 46 34 20 11 12 21 34 52 71 88 98 97 96 96 98 90 86 84 83 79 73 68 64 61 59 56 55 53 50 50 49
50 55 54 59 66 69 71 74 78 81 84 86 79 66 53 41 30 15 8 16 28 44 65 82 94 96 95 96 93 90 87 87 81 76 72 70 66 61 59 59 55 52 51 51 49
54 52 49 54 62 66 69 72 73 76 77 81 86 77 63 48 38 26 10 9 22 36 55 75 94 97 95 96 95 92 92 90 81 72 73 73 66 63 64 62 57 55 52 51 48
53 50 51 49 58 62 65 68 73 72 74 76 81 83 71 59 45 35 22 5 14 28 44 66 88 97 96 94 92 91 90 87 79 73 80 74 68 64 64 58 53 54 51 49 49
49 50 52 52 53 58 62 65 71 72 71 73 75 79 79 66 54 42 30 16 4 16 32 52 77 96 97 95 91 90 89 85 78 78 73 69 66 65 60 58 57 54 55 55 51
47 49 52 51 54 55 58 62 67 68 68 69 70 73 77 75 62 52 41 25 11 6 19 37 61 88 94 91 88 86 86 83 80 78 68 66 61 66 63 58 56 58 58 58 55
49 51 51 47 51 52 55 59 62 65 67 64 65 67 70 74 71 59 50 38 22 6 8 26 47 74 92 90 88 83 82 80 76 72 67 65 61 61 63 59 60 62 63 60 59
45 49 50 48 47 49 51 56 56 62 62 62 61 61 64 68 72 68 57 49 35 20 5 15 32 55 82 90 85 80 77 77 75 72 68 65 62 66 65 62 64 65 65 62 61
45 45 50 48 50 45 50 52 54 56 55 58 56 55 56 62 65 68 64 54 46 34 19 3 20 40 61 82 86 79 76 73 72 69 67 64 62 64 68 68 66 66 66 66 65
44 45 48 49 47 45 48 52 48 49 50 52 52 49 49 53 58 62 65 62 52 44 31 15 3 23 47 69 81 77 73 70 68 66 66 64 62 60 60 65 69 70 70 68 67
43 44 45 47 46 45 46 48 47 45 47 47 48 47 44 45 49 54 57 59 58 50 42 28 10 7 31 54 75 76 70 68 66 65 63 63 60 59 57 56 58 65 70 70 71
44 44 45 44 43 44 44 45 47 47 44 45 44 44 43 40 40 43 47 50 53 52 44 36 25 5 15 38 62 73 69 65 63 62 62 60 60 59 58 57 54 53 56 62 66
47 47 46 46 43 42 43 44 43 44 45 42 42 43 42 40 35 33 36 40 43 46 46 38 31 19 2 22 45 65 67 60 58 60 62 59 63 60 57 58 59 58 58 59 61
46 46 48 47 45 41 45 43 42 41 43 43 39 43 42 40 34 30 28 30 31 35 38 39 31 25 12 8 29 51 60 57 55 56 55 62 59 57 59 59 57 58 61 64 66
45 47 43 48 50 45 51 43 43 40 43 42 39 39 40 41 32 29 28 25 24 23 26 29 31 26 17 7 14 37 54 54 51 50 55 56 59 57 60 62 63 63 66 68 70
53 48 48 49 51 50 50 48 45 40 43 42 40 38 35 36 34 29 29 27 23 21 16 16 19 20 19 10 2 21 42 55 55 52 52 53 58 59 61 63 65 68 70 71 74
Wind_Direction
338 340 342 345 347 342 333 326 319 308 292 279 265 253 244 238 234 231 229 228 227 228 225 224 224 225 225 226 227 227 225 225 228 229 231 230 231 232 234 234 237 243 246 245 248
342 342 345 350 352 349 340 333 324 313 302 285 272 259 247 238 233 230 227 227 226 225 224 223 223 223 223 225 225 226 225 226 226 226 226 231 233 233 235 238 237 241 245 245 245
345 348 351 354 356 356 349 343 333 322 311 298 278 263 250 239 232 229 226 225 224 223 223 221 221 222 222 223 224 224 223 225 227 228 227 233 232 233 234 237 237 240 242 244 246
347 350 355 356 357 359 357 351 344 335 325 309 287 269 255 244 234 229 224 223 223 222 221 221 219 219 219 219 222 223 221 224 224 226 228 232 233 236 233 236 235 239 242 242 245
351 355 357 357 358 1 1 357 354 348 341 325 304 280 259 246 236 231 226 222 221 221 219 220 218 217 218 218 218 220 220 224 224 225 227 230 232 235 233 233 235 238 239 239 242
354 356 358 359 359 2 4 4 1 360 358 347 333 304 274 248 238 232 229 225 221 220 220 218 218 217 216 216 217 217 219 222 222 223 227 228 229 232 233 234 233 236 238 241 243
355 359 358 1 359 2 6 7 5 7 10 2 353 333 298 259 242 237 230 225 220 217 217 217 218 216 217 216 216 217 220 222 221 222 225 228 227 229 230 235 232 234 237 240 242
353 357 357 359 359 2 8 9 9 11 11 12 4 354 325 278 254 241 234 223 216 213 213 213 214 215 215 215 216 215 218 221 221 222 224 227 225 228 228 230 230 232 235 238 241
354 355 358 359 0 2 8 11 12 13 11 13 12 5 354 314 267 249 232 221 211 208 208 210 211 213 214 213 213 214 216 216 218 220 223 223 224 227 228 231 232 233 237 241 247
354 353 355 358 1 5 8 11 14 14 14 14 13 12 4 348 296 257 231 217 209 206 206 207 209 211 211 212 214 214 214 216 216 219 221 221 224 227 226 230 230 231 237 239 242
354 353 355 360 5 7 8 11 13 16 15 17 14 13 12 3 338 272 231 218 209 205 205 205 208 209 210 211 210 211 211 213 215 218 219 217 218 222 225 227 227 229 231 236 240
354 354 354 359 5 6 9 9 12 16 17 17 18 17 15 13 2 332 240 218 213 207 204 204 206 208 210 210 212 212 213 214 217 217 216 219 219 220 224 226 226 228 231 236 240
352 352 354 357 360 5 8 11 10 15 18 19 20 20 18 18 13 354 304 227 213 211 206 204 205 207 209 210 211 211 212 215 216 218 218 219 219 221 224 227 227 231 233 237 241
353 355 353 357 359 3 7 10 11 12 15 19 21 20 21 21 19 13 333 258 220 211 210 205 203 206 209 210 210 210 211 214 214 215 218 219 218 220 224 224 225 229 235 237 240
354 354 353 355 356 360 4 9 11 11 11 17 19 22 21 21 23 23 17 322 229 218 212 209 205 206 208 210 211 211 212 214 212 212 217 219 217 221 226 228 231 233 237 239 241
358 355 353 355 354 356 359 4 6 10 10 12 19 19 24 23 24 26 28 18 259 226 219 212 208 207 208 209 210 211 212 213 212 216 218 221 217 223 225 227 230 234 237 242 242
351 357 352 353 355 355 358 360 4 6 9 10 14 19 21 24 26 27 27 29 14 234 218 217 211 209 209 210 211 211 212 213 213 215 217 223 220 222 226 228 232 236 240 243 246
346 347 355 352 351 355 355 355 4 4 6 10 11 16 17 21 25 28 28 29 28 9 229 214 212 210 211 210 211 212 213 213 214 215 217 222 223 224 229 230 233 238 241 245 248
343 345 349 350 348 353 354 352 360 2 4 6 9 11 15 18 22 25 29 31 30 29 358 220 211 211 211 211 212 212 214 215 214 215 218 222 222 223 227 231 235 239 244 247 251
336 340 345 348 344 345 350 352 350 360 3 4 7 8 13 14 18 22 25 30 34 31 27 331 215 209 210 210 211 212 215 215 216 216 218 221 224 226 231 232 236 241 246 249 253
331 332 337 345 344 340 342 343 344 353 360 1 3 6 9 14 14 17 21 24 29 34 33 32 239 213 207 208 209 210 213 214 216 216 218 220 224 228 232 236 238 242 246 251 255
327 325 330 339 342 339 340 341 344 349 355 358 359 4 5 10 13 12 14 21 24 26 34 36 37 218 207 206 208 209 212 214 215 218 220 222 226 230 234 238 242 244 248 252 255
325 323 323 327 335 338 338 338 337 341 348 351 356 358 360 2 9 10 12 14 19 24 28 34 35 43 207 207 207 210 210 213 216 220 222 224 228 232 236 239 245 250 253 256 259
317 319 313 319 324 328 330 334 335 333 339 342 348 352 354 354 357 4 8 10 13 17 24 27 36 39 174 206 207 209 210 213 217 222 225 227 230 233 239 244 248 253 257 261 265
309 313 310 314 314 316 324 322 322 327 330 331 335 344 346 351 348 353 358 3 9 12 15 24 27 37 46 203 208 208 210 213 218 224 228 231 235 238 244 248 252 257 261 264 266
303 310 307 303 307 309 312 316 317 315 325 322 325 329 333 340 345 346 343 351 354 8 9 12 22 29 35 52 209 210 211 216 222 227 232 236 239 241 246 251 255 258 262 266 268
298 302 307 305 303 303 302 304 312 305 316 310 314 321 321 328 335 337 337 333 336 343 353 2 4 11 25 29 234 216 217 220 225 231 236 239 244 246 251 253 257 262 265 268 270